Tracking 33165 objects as of 7-Feb-2026
HD Live streaming from Space Station
objects crossing your sky now

HULIANWANG DIGUI-83

Track HULIANWANG DIGUI-83 now!
10-day predictions


NORAD ID: 65818
Int'l Code: 2025-220B
Perigee: 1,173.7 km
Apogee: 1,176.4 km
Inclination: 86.5 °
Period: 108.7 minutes
Semi major axis: 7546 km
RCS: Unknown
Launch date: September 27, 2025
Source: People's Republic of China (PRC)
Launch site: Taiyaun Space Center, China (TSC)
Your satellite tracking list
Your tracking list is empty




NASA's NSSDC Master Catalog

Two Line Element Set (TLE):
1 65818U 25220B   26038.28978534  .00000023  00000-0  18957-4 0  9993
2 65818  86.4945  87.7702 0001813 117.1327 242.9992 13.24419444 17722
Source of the keplerian elements: AFSPC